This is the latest recevied weather packets stored in our database for station/object EA1FBN. If no packets are shown the sender has not sent any weather packets the latest 10 day(s).
| Time | Temp. | Humidity | Pressure | Rain* | Wind** | Luminosity | Snow |
|---|---|---|---|---|---|---|---|
| 1778163300 | 16.11° C | 52% | 1010.6 hPa | 0.76 mm | - | - | - |
| 1778163000 | 16.67° C | 52% | 1010.3 hPa | 0 mm | - | - | - |
| 1778162700 | 16.67° C | 52% | 1010 hPa | 0 mm | - | - | - |
| 1778162400 | 16.67° C | 53% | 1010 hPa | 0 mm | - | - | - |
| 1778162100 | 17.22° C | 52% | 1009.9 hPa | 0 mm | - | - | - |
| 1778161800 | 17.22° C | 53% | 1009.9 hPa | 0 mm | - | - | - |
| 1778161500 | 17.22° C | 50% | 1009.9 hPa | 0 mm | - | - | - |
| 1778161200 | 17.78° C | 53% | 1009.9 hPa | 0 mm | - | - | - |
| 1778160900 | 17.22° C | 51% | 1010 hPa | 0 mm | - | - | - |
| 1778160600 | 17.22° C | 52% | 1009.9 hPa | 0 mm | - | - | - |
| 1778160300 | 17.22° C | 53% | 1009.9 hPa | 0 mm | - | - | - |
| 1778160000 | 17.22° C | 54% | 1009.9 hPa | 0 mm | - | - | - |
| 1778159700 | 17.22° C | 55% | 1010 hPa | 0 mm | - | - | - |
| 1778159400 | 17.22° C | 55% | 1009.9 hPa | 0 mm | - | - | - |
| 1778159100 | 17.22° C | 52% | 1010 hPa | 0 mm | - | - | - |
| 1778158800 | 17.22° C | 55% | 1010 hPa | 0 mm | - | - | - |
| 1778158500 | 16.67° C | 53% | 1010 hPa | 0 mm | - | - | - |
| 1778158200 | 16.11° C | 52% | 1010.1 hPa | 0 mm | - | - | - |
| 1778157900 | 16.11° C | 54% | 1010.1 hPa | 0 mm | - | - | - |
| 1778157600 | 15.56° C | 55% | 1010.2 hPa | 0 mm | - | - | - |
| 1778157300 | 15.56° C | 55% | 1010.4 hPa | 0 mm | - | - | - |
| 1778157000 | 15.56° C | 52% | 1010.4 hPa | 0 mm | - | - | - |
| 1778156700 | 15.56° C | 52% | 1010.5 hPa | 0 mm | - | - | - |
| 1778156400 | 16.11° C | 54% | 1010.6 hPa | 0 mm | - | - | - |
| 1778156100 | 16.11° C | 57% | 1010.6 hPa | 0 mm | - | - | - |
* Rain latest hour (hover to see other rain measurements)
** Current wind speed in m/s (hover to see current wind gust speed)